Santa Monica, CA

9:00 PM PDT on May 24, 2018 (GMT -0700)
Santa Monica Municipal

Weather History for KSMO - August, 2013

Change the Weather History Date:

Monday, August 12, 2013

  Actual Average Record
Temperature  
Mean Temperature 66 °F -  
Max Temperature 72 °F 79 °F 88 °F (1983)
Min Temperature 60 °F 63 °F 54 °F (1949)
Growing Degree Days 16 (Base 50)    
Moisture  
Dew Point 58 °F    
Average Humidity 78    
Maximum Humidity 90    
Minimum Humidity 65    
Precipitation  
Precipitation 0.00 in - - ()
Sea Level Pressure  
Sea Level Pressure 29.94 in    
Wind  
Wind Speed 3 mph (SW)    
Max Wind Speed 12 mph    
Max Gust Speed -    
Visibility 9 miles    
Events      
Averages and records for this station are not official NWS values.
T = Trace of Precipitation, MM = Missing Value Source: NWS Daily Summary

Daily Weather History Graph

Daily Weather History Graph

Search for Another Location

Airport or City:

Astronomy

Aug. 12, 2013 Rise Set
Actual Time 6:13 AM PDT 7:43 PM PDT
Civil Twilight 5:46 AM PDT 8:10 PM PDT
Nautical Twilight 5:14 AM PDT 8:41 PM PDT
Astronomical Twilight 4:41 AM PDT 9:15 PM PDT
Moon 11:50 AM PDT (8/12) 10:59 PM PDT (8/12)
Length of Visible Light 14h 23m
Length of Day
13h 30m
Waxing Crescent, 32% of the Moon is Illuminated
Aug 12
Waxing Crescent
Aug 14
First Quarter
Aug 20
Full
Aug 28
Last Quarter
Sep 5
New

Hourly Weather History & Observations

Time (PDT) Temp. Dew Point Humidity Pressure Visibility Wind Dir Wind Speed Gust Speed Precip Events Conditions
12:51 AM 63.0 °F 59.0 °F 87% 29.94 in 10.0 mi Calm Calm - N/A   Overcast
1:51 AM 63.0 °F 57.9 °F 84% 29.93 in 10.0 mi Calm Calm - N/A   Overcast
2:51 AM 62.1 °F 57.9 °F 86% 29.93 in 10.0 mi Calm Calm - N/A   Overcast
3:51 AM 63.0 °F 57.9 °F 84% 29.93 in 10.0 mi Calm Calm - N/A   Overcast
4:51 AM 63.0 °F 57.9 °F 84% 29.93 in 9.0 mi Calm Calm - N/A   Overcast
5:51 AM 64.0 °F 57.9 °F 80% 29.94 in 9.0 mi Calm Calm - N/A   Overcast
6:51 AM 64.9 °F 57.0 °F 75% 29.96 in 8.0 mi Calm Calm - N/A   Overcast
7:51 AM 64.9 °F 57.0 °F 75% 29.96 in 7.0 mi Calm Calm - N/A   Overcast
8:51 AM 66.0 °F 57.9 °F 75% 29.98 in 6.0 mi Calm Calm - N/A   Haze
9:24 AM 68.0 °F 57.2 °F 68% 29.98 in 6.0 mi Variable 3.5 mph - N/A   Haze
9:51 AM 69.1 °F 57.9 °F 68% 29.97 in 7.0 mi SSE 5.8 mph - N/A   Partly Cloudy
10:51 AM 71.1 °F 59.0 °F 66% 29.98 in 8.0 mi SSW 6.9 mph - N/A   Clear
11:51 AM 70.0 °F 59.0 °F 68% 29.97 in 9.0 mi SW 8.1 mph - N/A   Clear
12:51 PM 70.0 °F 57.9 °F 65% 29.96 in 7.0 mi SW 6.9 mph - N/A   Clear
1:51 PM 70.0 °F 57.9 °F 65% 29.94 in 7.0 mi WSW 9.2 mph - N/A   Clear
2:51 PM 71.1 °F 59.0 °F 66% 29.94 in 9.0 mi SW 11.5 mph - N/A   Clear
3:51 PM 70.0 °F 59.0 °F 68% 29.93 in 9.0 mi WSW 11.5 mph - N/A   Clear
4:51 PM 69.1 °F 59.0 °F 70% 29.91 in 10.0 mi WSW 11.5 mph - N/A   Clear
5:51 PM 66.9 °F 59.0 °F 76% 29.91 in 10.0 mi WSW 9.2 mph - N/A   Partly Cloudy
6:20 PM 66.2 °F 59.0 °F 78% 29.91 in 10.0 mi SW 10.4 mph - N/A   Mostly Cloudy
6:51 PM 64.9 °F 59.0 °F 81% 29.91 in 10.0 mi SW 8.1 mph - N/A   Overcast
7:51 PM 63.0 °F 59.0 °F 87% 29.93 in 10.0 mi SW 6.9 mph - N/A   Overcast
8:51 PM 63.0 °F 57.9 °F 84% 29.94 in 10.0 mi SSW 4.6 mph - N/A   Overcast
9:51 PM 62.1 °F 57.9 °F 86% 29.95 in 9.0 mi South 4.6 mph - N/A   Overcast
10:15 PM 60.8 °F 57.2 °F 88% 29.95 in 8.0 mi Calm Calm - N/A   Overcast
10:51 PM 61.0 °F 57.9 °F 90% 29.95 in 9.0 mi Calm Calm - N/A   Overcast
11:46 PM 62.6 °F 57.2 °F 82% 29.95 in 10.0 mi Calm Calm - N/A   Overcast
11:51 PM 61.0 °F 57.9 °F 90% 29.95 in 10.0 mi Calm Calm - N/A   Overcast